Theta_e
283 280 277 277 276 278 277 277 278 277 278 277 277 276 275 275 276 277 277 278 280 280 278 278 278 277 279 280 281 282 282 282 282 282 282 282 281 282 283 282 281 281 281 281 282 282 282 283 283 283 282 283 283 284 286 286 286 287 288 290 290 291 291 291 294 293 292 291 292 292 292 291 292 293 293 293 293 294 294 294 295 295 295 295 295 296
284 281 278 278 278 278 277 277 277 277 277 277 276 276 275 276 276 279 278 277 281 280 279 278 277 278 279 279 281 281 282 282 282 281 282 283 282 283 283 282 283 283 282 282 282 282 282 282 282 282 282 284 282 284 285 285 286 286 288 289 289 291 291 290 290 293 292 291 292 292 291 293 292 291 291 291 292 292 293 293 294 294 294 294 294 296
281 278 278 279 279 278 277 277 276 276 275 275 277 276 275 276 277 277 278 278 280 280 279 277 277 279 280 280 280 280 281 282 281 282 283 282 283 283 283 283 283 283 283 283 282 281 281 281 282 281 281 281 281 282 283 284 285 286 287 287 288 290 290 292 293 293 291 293 292 292 292 292 292 293 293 292 293 293 292 292 292 293 293 293 293 294
280 279 279 279 278 278 278 277 276 272 277 276 277 276 275 276 276 274 276 277 280 279 278 277 276 277 278 278 279 279 282 283 282 282 282 282 283 283 284 283 283 282 283 283 282 282 281 280 281 281 281 282 281 282 282 283 284 285 287 285 287 288 289 289 292 293 292 292 292 292 292 292 292 291 293 292 292 292 291 290 291 291 292 292 292 293
279 281 280 278 278 279 276 277 276 277 275 275 276 273 274 275 275 274 276 277 278 279 279 277 275 275 277 277 280 281 280 280 281 281 281 281 281 282 282 283 282 282 282 282 282 282 281 281 281 281 281 281 281 281 282 283 284 285 284 285 285 287 289 289 290 290 290 290 288 290 290 289 288 289 289 288 286 287 289 290 289 288 289 290 291 291
278 280 280 278 278 277 276 274 274 274 275 274 274 275 276 276 276 276 276 276 273 275 277 277 272 272 274 276 278 279 278 281 280 280 281 282 283 282 283 284 284 284 282 282 282 282 281 281 281 280 280 280 280 281 282 282 283 282 283 284 284 285 287 288 289 289 290 287 286 285 285 285 285 283 283 283 283 284 284 285 286 287 288 288 288 289
280 279 278 278 278 278 276 276 276 274 272 272 278 277 278 276 276 275 275 276 273 273 276 274 273 268 272 277 278 277 276 278 280 280 281 282 283 283 284 284 284 284 285 284 282 281 280 280 280 280 280 280 280 282 281 282 282 282 283 283 283 284 286 287 288 288 290 287 286 285 284 284 283 283 283 284 285 285 285 285 285 285 286 286 287 287
279 279 280 277 278 277 278 277 277 277 274 275 278 277 277 277 275 274 274 272 274 273 273 272 273 267 269 274 277 277 275 277 279 281 282 282 282 283 284 285 284 285 284 283 283 283 281 280 279 280 280 280 281 280 281 281 282 282 281 282 283 283 286 285 286 287 288 286 285 285 285 286 282 282 282 283 284 284 286 284 284 284 285 285 286 286
279 279 278 279 277 277 276 278 278 277 278 277 278 277 277 276 275 274 273 274 274 274 268 275 270 271 265 273 276 276 278 277 278 279 280 281 282 282 283 285 285 285 284 283 282 283 282 281 280 280 280 280 280 280 280 281 281 281 280 282 282 282 282 283 284 287 285 288 285 284 284 283 285 284 283 283 283 283 283 282 283 283 284 284 285 285
279 280 279 279 278 278 278 278 278 277 277 279 278 279 278 277 276 276 274 275 271 268 267 270 270 268 269 273 276 276 276 276 277 279 279 280 281 281 282 284 285 285 285 283 281 281 281 281 280 280 279 280 280 280 281 282 280 280 279 281 281 281 281 283 282 282 283 283 285 282 282 282 281 283 281 280 280 280 281 281 281 281 282 282 283 284
280 284 284 279 279 281 279 279 278 277 279 279 278 277 277 275 272 270 270 271 268 265 268 272 273 272 265 271 273 275 276 277 276 277 278 280 281 282 282 283 284 284 284 284 283 283 282 281 281 280 279 280 280 279 280 280 279 279 279 279 279 280 280 281 281 281 281 281 282 281 281 280 280 280 281 281 280 279 280 280 280 280 280 281 282 282
281 280 281 281 283 280 280 279 278 278 278 278 275 275 276 276 272 270 264 263 267 262 265 273 274 273 267 272 277 276 275 276 277 277 278 279 281 282 282 283 283 283 283 283 283 284 284 284 284 280 280 279 279 279 280 279 279 280 280 279 280 280 280 280 281 281 281 281 280 280 280 280 279 279 279 278 278 279 278 278 279 279 280 280 281 281
281 280 279 280 285 281 279 277 279 279 280 279 275 275 272 266 265 272 265 268 259 268 275 272 272 271 271 275 278 278 277 276 276 278 279 279 280 281 282 283 283 283 282 282 283 283 283 283 283 283 283 281 280 280 279 280 279 279 280 279 280 280 279 279 279 280 280 280 280 280 280 281 282 279 279 278 278 278 278 278 278 279 279 279 280 280
275 278 279 280 281 282 280 277 277 277 279 278 275 269 264 263 260 262 256 257 261 269 272 272 272 272 275 277 277 277 278 278 277 278 279 279 280 281 281 282 282 282 282 282 282 282 283 283 283 283 282 282 281 280 280 279 281 280 280 279 279 279 279 279 280 279 280 280 280 280 280 279 280 279 279 278 278 278 278 278 278 278 278 279 279 279
274 272 278 279 279 279 278 278 279 277 276 275 275 274 269 265 267 264 261 268 266 269 271 270 269 266 273 276 278 276 278 277 276 277 277 278 279 279 279 280 281 282 283 282 282 283 283 284 283 283 283 282 282 281 281 279 279 279 279 279 281 280 279 279 279 279 281 281 280 280 280 281 281 279 278 279 281 278 278 278 278 278 278 279 278 279
277 277 280 280 280 279 278 279 279 277 276 276 275 275 273 269 264 269 261 262 260 262 267 264 270 271 276 279 280 277 276 278 278 277 278 278 279 279 281 283 283 283 283 283 282 283 284 284 283 283 283 283 282 282 281 280 280 279 280 279 279 279 279 279 283 281 279 279 280 280 281 280 284 285 282 283 282 279 279 279 279 279 278 279 279 280
273 274 280 277 280 278 278 279 279 279 273 276 275 269 272 275 269 262 264 262 260 260 264 262 273 276 278 278 278 276 278 281 276 276 277 278 279 280 283 282 282 283 283 283 283 283 283 283 284 283 283 283 283 283 282 282 281 280 280 280 280 279 278 278 281 280 279 278 280 280 280 280 282 280 280 280 279 279 280 280 279 279 279 279 279 281
273 276 278 278 280 279 277 278 279 277 279 275 272 275 276 276 272 269 265 257 259 262 264 266 267 271 273 271 276 279 277 279 277 276 276 277 278 281 282 282 282 282 283 282 282 282 282 282 283 284 283 283 283 283 283 283 281 280 280 280 280 280 280 279 279 280 279 279 280 279 280 280 280 280 279 279 279 278 280 279 280 280 281 280 281 282
277 271 276 278 277 279 279 280 280 279 279 279 278 275 277 266 270 265 261 263 264 259 263 267 268 269 271 275 275 277 277 279 278 277 277 278 279 280 281 282 282 283 282 283 283 283 283 283 283 283 283 284 283 283 282 282 282 280 280 280 279 280 280 280 279 279 281 279 281 281 281 280 280 279 279 279 280 279 279 279 279 279 279 279 280 283
277 271 275 278 278 278 279 276 271 275 278 275 278 276 272 271 267 265 265 263 265 264 264 266 265 268 274 274 276 278 276 277 278 277 277 278 278 279 280 281 282 282 282 282 282 282 282 282 282 283 283 283 284 284 284 282 281 280 280 280 280 280 279 279 279 279 280 280 280 281 280 280 280 280 280 279 279 279 279 279 279 279 279 280 281 280
275 274 269 276 275 278 275 276 275 276 273 274 273 270 272 270 271 272 268 269 267 259 257 259 265 268 274 276 278 279 278 278 278 279 279 278 279 280 281 281 281 282 282 282 282 282 282 282 282 283 282 282 282 282 282 282 282 282 280 280 280 280 280 279 280 278 280 279 279 280 280 280 280 280 280 280 279 280 279 279 280 279 280 280 280 280
269 271 270 272 274 270 276 278 278 276 276 276 274 275 275 272 267 267 266 264 261 265 258 258 268 272 278 279 279 279 279 278 277 278 278 278 279 280 281 282 281 281 282 282 282 282 282 282 282 282 282 281 281 282 282 282 281 281 281 281 280 279 280 280 280 280 280 279 280 279 280 280 279 280 279 280 279 280 280 279 280 280 279 279 280 280
277 269 271 272 272 277 277 277 276 275 274 272 276 277 275 271 268 261 264 265 262 265 259 259 262 270 279 278 277 278 277 275 274 275 277 278 280 281 281 281 281 281 281 282 282 282 282 281 281 281 281 281 281 282 282 282 281 282 281 281 280 280 281 281 281 280 280 279 279 279 279 279 279 279 279 279 279 280 280 280 279 279 280 280 280 280
283 267 269 273 271 274 275 274 276 274 275 275 274 273 274 274 274 273 266 265 265 263 265 260 261 272 278 278 277 277 276 276 276 275 277 279 281 281 281 281 281 281 282 281 281 281 281 281 280 280 280 281 282 281 282 282 282 282 282 281 280 280 282 281 281 280 280 279 279 279 279 279 279 279 279 279 280 280 280 280 280 280 280 280 279 280
271 271 273 269 266 269 270 272 273 271 272 272 274 275 273 273 271 270 267 265 267 264 266 266 265 267 277 278 278 278 277 278 279 279 278 279 281 281 281 281 281 281 281 281 282 282 282 281 281 281 281 281 281 281 281 282 282 282 282 281 281 282 282 281 280 280 280 279 279 279 279 279 279 279 279 279 279 280 280 280 280 280 280 280 280 280
275 270 271 269 268 270 273 272 272 269 272 273 272 274 273 274 272 271 269 259 265 264 267 262 266 275 277 277 279 278 277 279 281 281 281 279 280 282 282 282 282 281 282 281 281 281 282 282 281 281 281 281 281 281 282 282 282 282 282 282 282 282 282 282 280 280 280 279 279 280 279 279 279 279 279 280 280 280 280 280 280 280 280 280 280 280
268 269 271 269 269 273 276 278 277 279 275 273 273 274 274 273 274 273 269 262 268 263 268 272 272 276 279 281 279 278 278 279 281 281 281 282 281 281 280 281 281 281 281 281 281 281 280 281 281 281 281 281 281 281 281 281 282 282 282 282 282 282 282 282 280 280 280 280 279 280 280 280 280 280 280 280 280 280 280 280 280 279 280 280 280 280
267 270 272 271 274 278 279 278 278 277 275 276 276 275 274 274 273 273 271 270 271 267 270 272 274 273 276 279 279 280 282 282 281 281 282 282 282 282 282 281 283 281 281 280 280 280 280 281 281 281 281 281 282 282 281 281 281 282 282 283 283 281 281 282 281 280 280 280 280 280 281 281 280 280 280 280 280 280 280 280 280 280 280 279 279 280
269 268 271 272 272 274 275 276 277 276 275 276 276 275 274 274 273 273 274 274 272 272 274 273 272 272 277 279 281 282 282 282 282 282 282 282 281 281 281 280 280 281 281 281 281 281 281 281 282 282 282 282 282 282 282 282 282 281 281 281 282 282 282 281 280 281 280 280 280 281 281 281 280 280 280 280 280 280 280 280 280 280 280 279 280 280
272 267 267 269 272 274 275 276 276 274 274 274 274 275 275 274 274 275 275 275 274 275 277 278 277 277 279 280 282 283 283 282 282 282 282 281 281 281 280 280 280 281 281 281 282 282 282 282 281 282 282 282 282 282 282 282 282 283 282 283 282 281 282 280 281 281 281 281 281 282 282 281 280 281 280 280 280 280 280 280 280 280 279 279 280 280
273 268 276 267 268 273 275 274 273 273 272 273 275 274 274 274 274 275 275 275 275 274 276 276 275 275 280 283 282 283 283 282 280 280 281 281 281 281 280 280 281 281 282 282 282 282 282 282 282 281 281 282 282 282 282 282 283 282 282 282 282 282 282 280 281 281 281 282 283 282 282 281 281 280 280 280 280 280 280 280 280 279 279 280 280 280
273 268 265 263 271 273 270 270 272 273 273 272 272 273 273 272 271 273 273 275 274 273 274 272 272 273 279 282 280 280 280 279 280 281 281 282 282 281 280 281 281 282 282 283 283 283 282 282 282 282 282 282 282 282 282 282 283 281 282 283 283 283 281 280 281 281 282 282 283 282 282 281 281 280 281 280 280 280 280 280 279 279 279 279 279 280
268 267 267 265 270 271 268 270 273 273 271 270 272 273 274 274 274 273 274 275 277 277 273 271 274 280 281 281 279 281 281 281 281 281 281 281 281 281 281 282 282 283 283 283 283 283 283 283 283 283 283 283 283 283 283 283 282 283 284 283 284 282 281 281 281 281 282 282 282 282 282 281 281 281 281 281 281 281 280 279 279 279 279 279 280 279
269 268 265 267 267 268 271 272 275 273 270 271 280 276 276 275 274 273 274 275 276 278 277 279 280 281 279 280 280 281 282 283 284 284 282 283 283 282 282 282 282 283 283 283 283 283 283 283 283 284 283 284 284 284 284 283 282 284 284 283 282 281 282 281 281 281 282 282 282 282 282 281 281 281 281 281 281 280 280 279 280 280 280 280 279 279
270 266 265 263 266 268 269 273 275 269 271 278 278 276 277 278 278 278 278 278 277 278 279 279 280 281 281 282 282 283 284 284 284 282 283 282 281 282 282 283 283 283 283 284 283 284 284 284 284 283 283 283 284 283 282 282 282 282 282 282 282 282 282 282 282 282 282 282 282 282 281 281 281 281 282 281 281 280 280 280 280 280 280 280 280 279
269 266 264 267 262 264 267 264 269 272 275 281 279 278 277 277 277 276 277 279 280 279 279 278 280 281 282 282 283 284 283 283 281 281 282 283 283 283 282 282 283 283 283 284 285 285 285 285 285 285 285 286 284 283 282 283 283 281 283 282 281 282 281 281 281 282 282 282 282 282 282 281 281 281 281 281 281 280 280 280 280 280 280 280 280 279
274 270 267 267 264 267 263 263 274 277 277 277 277 277 277 276 276 276 275 281 280 281 279 280 280 281 281 282 283 283 282 280 281 283 282 283 284 283 283 284 285 285 285 286 285 286 286 286 285 285 284 284 284 283 284 284 283 282 282 282 282 282 282 282 282 282 282 282 283 283 282 282 282 282 281 281 281 280 281 281 281 281 280 280 280 279
275 271 269 271 269 268 267 267 266 265 267 272 278 278 279 278 279 278 277 280 282 280 282 281 280 282 282 282 282 282 280 281 283 283 283 283 283 283 283 283 284 284 284 284 284 284 284 284 284 284 283 283 283 283 284 284 283 282 282 282 282 282 282 282 282 283 283 283 283 283 283 282 282 282 282 281 281 281 281 281 281 281 281 280 280 280
269 269 268 272 269 265 264 264 262 264 274 277 278 278 278 277 278 278 277 276 283 282 281 282 282 282 282 282 282 281 281 280 282 285 283 283 283 282 283 284 283 283 284 284 284 285 286 286 285 284 283 282 282 284 284 283 282 282 282 282 282 282 282 282 283 283 283 284 284 283 283 283 282 282 282 281 281 281 281 281 281 281 280 280 280 280
268 263 265 266 264 263 259 260 268 268 274 277 277 279 278 276 279 280 273 273 278 279 281 282 282 283 283 282 281 280 280 280 282 287 287 285 284 283 282 285 285 285 285 285 284 285 285 285 284 284 284 283 284 285 284 283 282 282 282 283 282 282 282 283 284 285 285 284 284 284 283 282 282 282 282 282 282 281 281 281 281 280 280 280 279 279
268 266 266 269 264 268 272 267 264 271 277 280 279 278 277 277 280 271 270 282 281 280 280 281 282 283 283 282 281 281 282 286 289 291 290 287 285 285 284 284 284 285 285 286 286 287 285 285 285 285 285 286 286 285 284 283 282 282 282 282 282 282 284 285 285 285 285 284 284 283 283 283 282 282 282 282 282 282 281 280 280 280 279 279 279 278
265 263 266 264 263 266 267 267 270 273 280 280 279 281 279 279 270 273 282 282 281 281 280 281 282 283 282 283 282 283 287 288 287 286 285 286 286 285 286 286 286 285 285 285 285 285 285 285 285 285 284 285 285 284 284 283 282 283 283 282 282 284 285 285 285 285 284 284 283 283 283 283 282 282 282 282 281 280 280 280 280 280 279 278 278 278
274 270 267 267 265 262 262 263 267 270 275 280 280 280 279 277 279 283 281 281 280 281 280 281 281 283 282 282 283 284 285 285 285 285 286 286 285 286 286 286 286 286 286 286 286 286 284 284 285 286 286 286 285 285 284 282 282 283 283 283 284 285 285 285 285 284 284 284 283 283 283 283 282 282 282 281 281 280 280 280 278 278 278 278 277 277
277 274 268 266 271 268 265 267 271 280 280 282 283 279 279 284 287 281 282 287 284 280 281 281 281 282 283 283 284 285 285 285 285 285 285 286 286 286 286 285 285 285 285 285 285 285 284 284 285 285 286 286 285 285 284 283 283 284 284 284 286 285 285 285 284 284 284 283 283 283 283 283 282 282 281 281 280 279 280 279 279 278 277 277 277 277
279 280 278 278 275 275 272 275 282 278 280 283 284 289 287 285 286 286 283 285 287 287 284 282 285 285 284 284 283 283 284 285 285 286 285 286 286 286 286 286 287 286 286 286 287 287 285 285 285 286 286 286 286 285 284 284 283 283 283 285 286 285 285 285 284 284 283 283 283 283 283 282 282 281 281 281 280 279 279 279 278 278 277 276 276 276
283 283 280 278 280 279 282 284 286 284 281 281 283 284 285 286 284 282 282 284 285 286 287 287 288 288 288 286 284 283 284 285 285 286 286 286 286 287 287 287 287 287 286 286 286 285 285 285 284 284 284 285 286 285 284 284 283 283 284 286 286 285 285 284 283 283 283 284 283 283 283 281 282 281 280 280 279 279 280 280 279 278 278 277 277 276
281 282 280 280 277 276 278 283 284 285 286 286 286 287 286 285 286 287 286 286 286 287 287 286 286 286 286 286 285 285 286 286 286 286 286 286 286 286 287 287 287 287 287 287 288 287 286 285 285 284 284 285 286 286 285 284 284 284 285 286 286 285 284 283 283 283 283 283 283 283 282 281 282 281 280 279 278 278 278 278 278 278 277 277 276 276
279 283 281 282 281 280 281 284 285 287 283 283 285 286 286 286 286 285 286 287 287 287 286 287 286 286 285 285 285 285 285 286 285 285 286 286 287 287 287 287 287 287 288 288 288 287 285 285 285 285 285 286 287 287 286 286 285 285 285 285 285 284 283 282 282 282 283 283 283 283 283 282 278 279 281 280 279 278 278 277 277 277 278 278 277 276
281 280 277 277 278 281 283 284 285 286 285 286 288 288 288 289 289 289 288 287 286 285 286 286 286 286 286 286 286 286 285 285 286 286 286 286 286 287 287 288 288 288 288 287 288 287 286 286 286 286 285 286 287 287 286 286 286 286 285 285 285 283 281 282 282 282 282 283 283 282 282 281 281 280 280 280 279 279 279 279 277 277 278 279 278 279
281 279 283 279 279 279 280 283 285 281 282 283 284 286 287 288 287 286 286 285 285 285 286 285 286 286 285 285 286 285 285 285 286 287 286 287 287 287 287 287 287 287 288 288 288 287 286 285 285 285 286 286 287 287 286 286 286 287 286 285 284 282 281 282 282 281 282 283 282 282 281 280 280 280 279 279 279 279 278 276 279 279 278 278 277 279
281 283 281 280 280 281 286 287 287 285 285 287 288 286 286 286 285 285 286 287 287 286 285 284 285 286 286 286 285 284 284 285 286 287 286 286 287 288 288 287 287 287 288 288 287 287 286 286 286 286 285 286 286 286 286 286 286 287 286 284 284 282 282 282 281 281 282 283 282 282 281 281 281 280 279 279 279 278 278 277 274 279 280 280 278 278
Wind_Speed
1 10 13 8 5 6 4 1 3 2 1 1 2 2 3 3 5 3 3 2 4 2 1 4 6 3 6 5 6 6 6 3 4 5 5 5 5 6 6 6 6 6 5 5 7 6 5 7 6 5 4 5 6 5 7 8 9 9 8 8 10 8 7 8 8 6 6 7 7 8 11 10 8 7 8 10 9 5 6 8 9 9 9 10 9 8
1 16 7 3 3 4 3 2 0 2 2 2 2 3 1 0 6 1 1 2 6 1 3 4 4 3 4 4 5 7 3 4 4 5 5 6 5 5 5 7 7 7 5 5 7 7 6 6 8 7 5 5 9 9 7 9 9 8 8 7 7 7 7 8 8 7 5 6 6 5 6 4 5 6 7 6 4 6 10 9 8 9 10 11 10 8
13 11 3 1 1 1 1 2 1 2 2 0 1 2 1 5 4 4 1 2 5 1 5 5 5 3 5 5 6 3 3 5 3 2 5 5 8 7 6 5 7 8 9 7 5 6 6 7 7 6 5 4 3 5 6 5 6 9 9 8 8 7 7 5 6 6 6 5 4 5 4 3 1 3 4 4 5 7 8 8 9 9 10 10 9 10
10 7 4 1 2 3 2 5 3 2 2 2 5 5 4 2 5 2 2 5 9 3 4 4 2 3 6 3 3 2 2 4 5 4 7 5 7 8 7 6 8 8 8 8 6 7 7 6 6 5 6 6 5 5 6 6 5 4 6 7 8 7 7 7 8 7 6 6 6 4 1 2 3 3 2 4 5 6 8 9 8 9 9 9 9 8
7 0 1 1 3 3 2 3 6 6 3 1 1 2 1 3 2 3 5 6 5 0 0 1 2 3 5 5 7 5 3 3 5 7 4 3 3 6 8 7 5 7 6 7 8 7 6 7 6 6 6 5 5 5 5 6 6 4 4 5 6 6 7 7 8 8 8 7 7 5 4 4 4 4 4 3 7 8 7 8 11 10 9 9 8 8
4 1 0 2 3 4 2 2 4 2 4 4 3 1 1 1 6 5 4 6 3 1 7 5 1 1 4 3 3 4 8 9 5 6 6 7 7 5 6 7 7 5 4 6 7 6 6 6 7 6 6 5 5 5 4 4 4 5 6 5 6 6 6 7 7 8 6 6 6 6 6 6 5 7 8 10 8 8 8 8 6 8 9 9 9 7
2 1 3 1 3 3 3 2 1 2 1 2 5 3 2 3 3 3 4 0 2 3 4 2 2 2 2 2 4 4 5 6 5 5 6 6 7 6 6 6 7 6 9 5 5 5 5 5 5 6 4 4 4 4 4 4 4 4 5 5 4 5 5 5 6 6 5 6 6 7 6 5 6 4 4 4 5 4 4 4 7 7 8 9 9 9
3 4 6 5 5 4 5 6 1 1 2 1 0 2 4 1 1 1 1 1 1 1 2 4 3 2 2 3 2 5 3 4 6 8 8 7 7 7 6 6 6 7 5 6 8 8 4 5 4 5 5 4 5 4 3 4 4 5 5 5 5 4 4 4 5 5 5 5 5 5 5 5 5 5 4 5 5 4 4 7 7 6 7 8 8 8
3 5 5 6 5 5 5 1 4 1 0 2 0 3 2 1 1 4 3 2 1 1 2 7 3 1 2 5 4 2 5 8 5 7 7 8 8 6 8 8 8 7 6 4 7 8 8 7 5 5 6 5 4 4 3 3 4 4 3 3 4 5 4 5 5 4 6 4 4 3 3 4 3 3 3 3 4 5 6 9 8 8 8 8 9 9
1 1 1 1 3 6 4 4 1 5 3 1 2 4 3 4 5 3 2 3 1 3 4 3 4 1 6 5 7 3 2 5 4 7 7 7 7 7 6 8 9 8 7 6 5 7 9 8 7 5 5 6 6 4 3 3 2 3 3 4 4 4 5 4 5 5 5 5 4 4 3 3 3 3 4 4 5 5 5 8 7 7 8 7 8 8
1 2 3 3 2 2 4 5 3 5 3 0 4 2 2 4 3 3 4 2 2 1 3 2 1 1 2 3 1 1 2 4 4 6 5 7 8 8 7 7 7 7 7 7 9 9 7 6 7 5 6 7 6 4 2 3 3 2 2 3 3 3 3 3 4 4 4 3 4 3 3 3 2 2 2 4 5 5 5 7 6 6 5 5 6 6
1 0 1 1 1 4 1 4 0 1 1 2 1 1 3 0 3 1 4 2 2 3 3 3 1 0 0 4 2 6 3 2 4 4 6 6 8 8 7 8 7 6 7 8 7 9 10 12 8 3 6 5 6 4 4 4 3 2 1 1 1 2 3 3 2 3 3 3 3 2 2 2 1 2 2 3 4 4 4 4 5 3 5 5 5 5
0 3 3 5 1 7 4 2 3 1 2 5 2 4 3 3 6 1 9 2 0 0 0 2 1 1 5 7 3 4 4 3 5 6 5 5 7 8 8 8 7 6 6 6 7 7 8 7 9 10 9 6 4 4 5 5 4 3 2 1 1 2 2 2 2 2 1 2 2 1 1 0 0 1 2 2 3 1 3 2 4 4 5 4 6 6
2 2 5 5 2 2 3 7 7 6 8 10 8 5 5 4 4 1 3 3 4 5 2 1 1 2 3 5 4 3 4 4 5 7 6 6 7 7 8 8 8 7 6 5 5 5 6 6 7 7 7 7 7 5 5 5 4 4 3 3 3 4 2 2 1 1 1 1 1 0 0 0 1 1 1 1 2 1 1 2 3 3 4 5 4 4
7 5 5 5 3 4 4 3 1 3 3 2 2 1 3 4 1 2 1 2 2 6 7 3 1 2 5 2 2 4 4 5 5 5 5 7 7 6 8 7 5 6 7 5 5 5 6 7 6 7 7 7 6 6 5 4 4 4 4 4 4 4 4 2 3 1 1 0 0 0 0 0 1 2 2 1 1 1 2 2 3 2 2 5 2 4
0 5 3 1 3 3 3 1 0 1 0 1 2 2 5 1 2 0 1 1 2 5 7 2 2 3 4 1 3 2 5 4 3 2 2 3 3 4 5 7 8 8 8 6 6 7 7 6 6 5 6 6 6 6 5 4 3 4 5 4 5 5 4 4 3 3 3 2 1 1 1 1 0 0 1 1 1 0 1 1 1 1 1 1 1 1
3 0 1 6 3 3 2 2 2 0 2 2 2 3 1 2 5 4 1 1 1 3 6 1 8 4 7 2 1 3 2 2 2 3 4 5 6 6 7 7 8 8 8 8 8 7 8 8 6 4 5 6 6 5 5 5 3 4 4 4 5 5 4 4 5 4 3 3 2 3 2 2 1 2 3 3 2 1 0 0 0 0 0 0 0 1
0 9 2 3 1 1 0 1 1 3 0 1 4 1 2 2 2 2 1 4 6 1 4 3 2 9 6 1 2 1 3 5 4 6 4 6 4 6 7 7 8 8 9 8 7 6 5 6 7 7 4 4 5 6 6 6 3 3 4 4 5 4 5 5 5 5 4 4 4 4 4 3 3 4 3 3 4 3 2 1 1 0 0 1 1 0
1 4 2 0 1 5 2 0 2 1 1 5 4 3 1 1 2 4 3 5 5 3 7 8 3 6 4 4 1 3 4 5 5 5 5 6 6 6 7 9 9 9 8 8 8 8 8 6 7 6 6 6 5 5 5 6 4 3 4 4 5 7 5 5 4 4 3 4 4 4 4 4 4 4 3 3 2 3 3 4 3 3 3 2 1 1
1 1 6 0 0 4 2 3 0 4 3 2 1 2 0 3 3 2 0 2 4 5 7 8 5 3 6 5 5 3 5 4 5 4 6 6 6 6 7 7 8 9 9 9 9 8 8 8 7 6 6 7 7 7 6 5 4 4 4 4 4 4 4 4 5 4 5 5 4 4 3 4 4 4 4 4 4 4 4 4 4 4 3 5 3 3
0 1 2 2 2 1 1 2 1 0 1 4 4 3 2 2 1 3 0 0 2 3 2 1 8 6 6 5 5 6 5 5 5 6 6 6 6 6 7 7 7 8 8 9 9 8 8 9 9 7 5 6 6 5 5 5 5 5 3 4 4 5 5 5 6 4 6 4 5 4 5 5 4 5 4 4 4 4 5 4 4 5 5 2 4 4
1 1 3 6 7 2 3 0 0 1 1 1 1 2 3 2 2 1 3 1 1 2 2 1 9 8 10 3 7 5 5 4 5 5 6 6 7 7 8 8 6 7 9 8 8 8 8 8 8 8 7 4 4 6 5 4 3 4 4 4 4 3 5 5 6 5 6 4 4 5 6 6 4 4 4 4 4 5 5 5 5 5 3 5 5 4
1 2 1 7 4 3 2 2 1 1 1 1 1 0 3 4 4 3 0 2 1 1 3 2 0 12 6 2 3 4 3 4 4 3 6 6 7 8 9 8 8 6 8 10 9 9 8 7 7 7 8 9 8 8 6 6 4 4 5 4 4 4 7 5 6 4 4 5 5 6 6 5 5 4 5 5 5 6 6 6 5 4 6 6 6 5
4 2 4 5 3 3 0 1 0 2 1 1 0 1 1 0 2 5 3 3 2 0 1 1 2 11 6 0 3 3 4 4 4 4 6 8 8 9 8 9 8 8 7 6 7 7 7 7 6 7 7 7 6 5 6 5 5 5 4 4 4 5 7 5 5 4 4 4 5 5 5 6 5 5 5 6 7 7 7 7 6 5 6 7 5 6
1 1 2 4 5 4 1 1 1 1 1 1 1 2 2 3 5 3 5 1 1 7 7 8 7 6 2 1 2 1 3 5 6 5 6 8 8 8 8 7 7 7 7 8 8 8 9 8 7 7 6 7 7 6 6 6 6 5 6 4 5 6 6 5 4 4 4 4 5 5 6 6 5 6 7 8 7 8 7 7 7 5 7 6 6 6
0 2 1 2 3 5 8 9 7 4 3 1 0 1 1 5 7 1 1 1 1 2 4 3 8 11 6 3 2 3 4 7 8 7 6 6 8 10 9 8 8 7 8 8 8 8 8 8 8 9 8 7 7 7 6 6 6 6 5 7 5 6 5 6 3 4 4 4 5 6 6 7 5 7 8 8 8 8 8 7 6 7 6 6 8 7
1 0 1 4 4 5 8 5 0 2 2 2 2 3 4 2 1 3 5 4 7 3 8 13 8 12 19 18 6 5 4 8 12 8 7 7 6 7 7 8 7 8 8 9 8 8 7 8 9 8 8 8 7 7 6 6 7 6 6 8 6 5 6 5 4 4 4 5 5 6 7 7 8 8 8 8 8 7 6 7 7 7 8 7 7 8
2 1 4 5 8 10 6 8 5 3 7 11 8 8 6 6 7 7 8 8 6 6 10 6 8 7 17 15 10 10 12 10 7 7 8 8 9 10 9 8 10 9 8 6 6 7 8 9 9 9 9 8 8 7 7 6 7 7 6 8 7 4 4 4 4 4 5 5 5 6 9 8 7 7 8 7 6 6 7 7 7 7 7 5 8 9
2 1 1 1 7 9 11 14 11 7 7 11 10 7 8 8 8 11 13 7 8 7 14 1 4 4 15 13 14 15 14 11 12 13 10 9 10 9 8 8 9 9 9 9 9 8 7 8 8 9 9 8 7 8 9 7 7 6 6 6 8 6 7 4 4 5 5 5 6 9 9 7 5 5 6 6 6 7 8 7 7 6 6 6 8 8
1 3 2 1 9 10 13 15 11 8 6 7 11 12 12 9 13 15 15 9 14 17 17 15 14 19 21 21 21 19 13 9 12 9 9 10 12 9 7 9 9 9 9 10 10 9 8 9 8 9 8 9 9 9 9 8 7 7 6 7 6 6 6 3 5 5 5 6 9 9 7 6 5 5 5 6 8 8 8 7 7 6 7 8 8 8
1 4 2 0 2 8 5 2 2 4 4 12 11 10 12 10 10 13 10 11 9 15 21 20 17 20 23 18 15 15 12 8 7 10 12 11 9 8 8 9 10 10 10 10 9 10 9 9 8 8 8 10 10 10 9 8 8 6 5 7 7 8 5 3 5 5 6 8 9 8 6 5 6 5 6 8 7 7 7 8 7 6 7 8 8 9
0 3 2 2 5 8 1 2 5 6 10 12 18 13 10 9 8 10 11 11 10 16 8 2 8 14 20 12 5 9 8 7 10 11 9 9 8 6 7 10 10 10 10 11 10 9 9 9 9 9 9 10 9 9 8 9 9 5 7 7 7 8 2 4 5 6 7 8 7 6 7 7 6 5 8 6 8 8 8 6 6 7 8 8 9 9
2 1 1 2 3 8 2 2 12 10 7 5 9 11 13 12 6 1 6 4 15 8 4 7 12 13 10 3 4 8 7 9 9 10 10 8 7 7 9 10 10 10 11 11 11 10 10 10 10 10 10 8 9 9 10 9 6 8 9 7 8 3 4 5 6 6 7 8 7 8 7 6 6 7 7 8 9 7 5 6 6 7 8 10 10 5
1 1 0 1 1 7 10 14 12 7 6 2 1 4 9 8 14 12 10 13 13 12 11 8 14 8 7 8 9 13 12 11 10 7 4 6 10 9 9 9 10 11 11 11 11 11 11 10 9 9 9 9 10 10 10 6 7 9 7 6 5 5 6 5 7 6 8 8 8 8 7 6 7 8 9 8 7 6 6 6 9 9 8 7 5 7
3 2 1 1 1 6 7 10 6 2 5 2 2 5 4 2 9 14 13 6 9 15 17 16 18 17 16 12 12 14 15 15 9 9 12 8 7 10 12 12 11 11 11 10 10 10 10 10 10 9 10 10 10 8 6 8 8 8 7 7 6 6 6 7 7 7 8 8 9 7 7 7 8 9 9 8 7 6 7 8 8 8 8 7 8 8
5 5 3 1 2 2 1 2 5 9 4 17 7 1 2 2 2 1 11 14 14 16 18 18 22 19 16 16 15 13 14 12 8 7 11 13 10 11 10 11 12 11 10 10 10 10 10 10 10 10 11 9 6 7 6 9 7 5 8 5 5 6 6 6 7 8 7 8 9 9 8 8 8 9 9 8 7 7 9 9 9 10 8 7 7 7
6 3 2 3 2 3 2 2 10 13 17 8 2 1 4 3 5 3 2 12 8 10 14 14 17 16 16 16 16 15 9 6 10 9 7 11 11 10 13 13 12 11 10 10 9 11 10 9 9 11 8 7 8 8 10 9 7 7 7 6 8 7 7 7 8 10 9 9 10 9 9 8 9 9 9 8 8 9 9 9 10 9 6 6 8 7
1 3 3 2 2 3 1 7 5 4 3 5 2 2 1 1 5 4 4 12 4 9 10 13 12 16 15 14 12 10 3 7 15 5 3 7 10 9 9 10 10 9 9 10 9 8 10 11 10 9 8 10 10 11 10 9 7 6 6 8 8 7 8 8 10 10 9 10 10 10 9 9 9 10 9 8 9 10 10 9 7 8 6 8 8 8
4 4 2 4 1 3 2 2 2 3 10 4 2 3 2 2 5 1 2 8 7 5 9 12 13 14 12 11 12 0 1 7 15 10 5 7 7 7 8 9 9 10 10 9 10 12 12 11 9 9 7 7 10 14 10 7 6 6 8 9 9 8 9 10 10 9 10 11 11 10 9 8 8 9 9 9 10 9 9 9 9 7 4 7 7 8
3 1 1 0 2 3 3 1 7 6 9 3 3 2 3 2 3 2 8 7 5 6 9 12 12 12 11 11 7 2 4 9 14 13 6 5 6 6 6 8 9 10 10 9 9 10 11 10 8 9 10 11 14 12 9 6 5 7 9 10 8 8 10 12 11 11 10 9 9 8 8 7 8 9 9 10 10 8 9 8 5 6 7 7 6 7
1 1 2 8 2 4 6 6 5 10 10 7 7 3 3 4 0 3 6 10 5 5 6 8 9 11 9 7 5 7 10 13 15 16 13 8 8 10 7 7 10 10 11 12 12 9 7 9 9 11 13 12 12 9 7 5 5 9 10 10 8 11 12 12 11 9 9 8 8 8 9 8 8 10 9 9 9 8 6 6 7 6 6 7 6 6
2 1 1 5 2 6 4 5 10 10 13 7 3 11 6 2 0 8 10 2 2 4 5 10 11 10 7 10 8 10 13 12 11 9 11 12 11 12 11 12 10 10 10 9 11 9 9 10 10 10 11 11 12 10 8 6 8 11 10 9 12 14 12 10 10 9 8 9 9 9 9 9 8 8 9 8 7 7 8 7 6 7 6 6 6 7
5 6 5 5 3 3 3 1 7 10 3 6 10 4 2 4 10 7 1 2 5 4 4 7 10 10 6 8 10 13 14 13 12 14 13 14 12 14 14 13 13 13 14 13 12 9 7 8 12 14 14 11 9 8 7 6 9 12 11 12 15 12 10 10 9 8 9 9 9 9 9 9 9 9 7 8 7 8 9 6 5 6 6 6 6 7
5 2 1 4 8 5 7 7 10 12 4 12 12 5 8 16 8 3 2 12 6 5 5 6 7 10 9 10 12 13 13 13 13 13 14 13 12 12 10 11 11 11 11 11 11 12 9 10 12 13 13 12 9 8 8 7 11 12 13 16 13 9 9 8 9 8 8 8 9 9 9 8 8 8 7 8 7 6 8 7 6 6 6 6 7 7
11 8 6 7 5 8 11 13 15 2 7 14 13 13 9 10 11 9 5 9 12 11 5 5 9 9 9 11 11 11 14 13 15 14 14 16 14 14 14 14 14 14 14 14 15 12 8 11 14 13 13 13 11 9 9 8 10 13 15 17 11 9 9 9 7 7 8 9 8 9 8 7 7 7 7 7 6 7 8 7 6 7 6 6 6 7
3 7 2 2 11 6 13 17 14 6 9 9 11 11 11 11 7 5 8 11 11 13 10 12 13 13 12 9 11 8 11 15 14 14 14 15 14 14 13 14 14 14 13 12 12 12 11 11 11 12 14 15 14 10 9 10 10 14 17 14 11 9 8 7 7 8 9 9 8 9 7 8 8 7 7 7 6 8 7 7 6 7 6 6 7 7
4 4 4 10 3 4 16 6 20 24 20 14 16 15 12 12 15 13 13 14 15 13 12 10 13 14 12 11 12 15 16 16 15 15 13 14 15 15 15 16 16 15 15 15 14 11 10 8 11 12 12 15 14 10 9 10 11 14 13 12 12 8 7 7 8 9 8 9 8 8 7 8 8 6 6 5 6 6 6 6 6 6 7 7 7 7
5 5 9 18 12 10 24 12 13 16 5 5 10 11 12 13 12 12 15 15 14 11 9 12 11 12 9 12 13 14 16 15 14 15 14 14 15 15 15 15 16 16 15 13 13 9 9 10 11 13 13 15 15 11 10 10 12 12 11 11 10 9 7 8 9 9 10 10 8 7 7 7 8 8 6 6 6 6 6 6 6 7 9 9 9 8
6 5 9 3 4 10 12 21 27 21 13 20 23 19 17 16 17 16 15 14 11 12 14 13 11 14 11 14 14 13 14 16 15 16 15 15 14 14 15 16 16 16 16 15 13 9 12 10 12 14 14 16 14 11 10 11 12 11 10 11 9 7 7 10 9 9 10 10 7 8 7 6 6 6 6 6 6 7 7 7 7 8 8 7 6 7
6 11 13 3 15 15 14 22 11 7 13 5 11 14 13 14 12 12 10 10 11 12 11 12 14 11 11 11 12 12 14 16 16 15 16 15 14 15 16 16 16 17 18 16 11 9 9 10 12 15 15 15 13 11 11 12 12 12 9 8 8 6 8 10 9 8 10 9 7 7 6 6 6 6 6 6 7 6 6 6 8 7 7 7 6 8
12 19 5 10 12 19 18 15 9 10 14 16 12 7 10 10 7 9 13 14 12 9 9 9 14 14 12 12 9 11 13 15 18 16 15 14 16 15 15 16 16 17 17 16 14 13 10 12 13 14 15 15 12 11 12 13 13 13 9 7 7 7 9 9 9 8 9 8 8 7 7 6 6 6 6 6 6 5 6 6 3 6 7 7 6 6
Wind_Direction
274 65 42 43 306 327 302 213 235 279 228 148 121 133 216 243 280 274 287 269 334 341 352 333 311 270 288 293 296 313 326 334 328 316 310 302 305 308 310 308 303 303 281 294 294 281 289 303 318 332 342 336 326 342 354 357 356 356 352 353 351 335 332 333 333 352 357 4 351 13 27 33 9 352 1 27 24 332 26 23 30 32 40 46 46 45
30 58 22 19 294 262 266 289 79 81 124 169 173 190 266 226 340 273 277 339 339 61 316 2 348 315 288 302 299 320 359 311 305 310 304 304 303 296 299 309 314 296 291 320 330 324 329 331 329 334 346 353 358 346 357 5 346 343 346 359 344 336 342 345 334 330 344 20 31 18 19 12 14 6 9 20 354 11 30 26 26 39 43 48 44 37
47 51 321 268 271 89 48 25 120 149 135 6 220 263 128 331 274 292 240 323 333 102 319 15 6 317 318 306 307 313 301 274 275 240 270 296 303 307 308 310 314 328 320 324 306 307 316 323 323 332 329 347 353 324 345 351 354 346 348 349 351 345 341 336 326 336 349 0 31 59 40 348 56 36 34 12 11 25 38 33 33 36 39 44 43 39
56 13 346 126 128 103 7 12 46 70 79 60 351 52 13 292 24 333 304 353 350 49 333 339 354 293 321 305 285 269 292 296 293 283 280 262 274 286 292 299 300 300 308 313 308 304 307 305 310 327 333 335 338 348 348 354 359 354 346 342 344 346 347 350 349 345 341 350 6 22 143 104 71 33 11 29 18 33 37 38 40 44 41 43 45 42
118 250 0 75 59 150 90 350 33 37 352 310 109 117 84 343 314 199 272 335 304 246 295 337 90 335 345 8 349 324 329 318 340 344 344 322 247 265 284 290 241 263 289 295 311 314 315 323 318 310 303 319 345 340 344 346 346 346 344 340 343 344 354 352 355 353 354 359 5 354 359 5 7 25 17 358 29 24 27 34 32 27 36 46 52 49
36 326 193 28 40 53 91 32 41 56 3 327 242 157 142 277 295 278 312 350 24 316 24 38 43 309 305 296 295 301 348 355 328 12 348 328 333 343 334 312 312 287 236 257 285 289 292 287 299 314 318 329 332 332 325 328 327 343 341 353 351 353 356 1 356 353 358 13 23 12 20 12 359 15 7 19 7 359 10 21 20 31 29 32 38 30
119 357 74 43 53 34 64 98 246 90 342 62 341 129 43 287 236 286 320 15 40 82 343 27 112 259 328 348 329 322 329 320 326 11 339 344 342 337 323 312 307 307 319 306 279 278 294 289 300 298 303 305 316 299 316 328 340 343 343 345 358 353 350 354 356 358 5 20 22 26 33 32 14 27 21 1 0 9 18 29 37 37 33 33 40 40
20 345 13 33 39 47 31 21 271 76 67 349 290 79 333 303 203 235 92 107 154 311 295 44 65 155 306 295 262 309 304 333 353 348 342 337 331 323 318 313 310 314 305 298 301 302 271 262 255 271 279 290 274 289 321 326 335 348 341 337 345 350 352 354 344 12 18 35 24 28 26 36 40 35 17 357 2 3 11 43 36 39 41 39 39 44
76 345 17 354 20 39 35 283 302 95 214 259 307 244 309 190 163 95 76 66 1 52 318 347 354 55 264 265 301 333 20 350 335 334 321 315 316 318 318 318 321 315 303 289 301 302 304 290 270 254 271 266 287 288 291 302 306 312 329 337 345 355 358 348 355 6 15 28 38 33 33 47 20 27 14 359 10 22 10 44 25 32 29 32 34 38
336 132 231 167 53 359 275 281 217 159 1 286 117 75 80 75 64 73 106 78 346 65 315 306 343 92 293 272 339 346 48 336 295 305 296 292 294 296 309 319 322 323 326 320 285 286 294 290 281 267 278 290 265 265 276 290 307 316 336 354 357 350 346 343 357 9 15 18 26 49 38 66 39 13 8 25 33 28 22 51 34 29 31 24 30 29
214 279 176 91 26 291 285 284 204 189 222 58 81 56 19 39 25 11 60 78 60 27 258 212 300 123 285 272 231 17 320 235 300 303 293 309 327 330 325 317 314 317 320 322 322 314 301 288 282 286 269 271 294 288 291 286 292 300 334 341 341 312 327 351 356 11 19 16 29 36 30 33 34 9 21 47 33 18 36 53 43 41 40 37 40 32
358 9 57 283 129 296 150 313 79 205 168 120 89 102 68 345 16 29 343 36 83 287 254 211 0 163 62 300 298 232 277 240 212 247 286 310 311 312 313 311 316 322 319 317 324 324 330 332 331 313 296 289 282 303 284 265 264 275 295 342 328 318 339 341 359 9 9 23 30 37 37 48 3 15 40 62 61 30 48 43 55 31 54 44 49 45
45 44 292 319 164 31 331 44 308 65 331 32 114 41 93 288 30 302 10 3 6 214 33 176 336 27 241 218 261 303 274 271 219 219 239 272 295 305 312 315 315 313 320 325 324 325 329 328 322 328 320 318 299 279 278 269 257 250 260 245 239 286 304 318 344 19 3 36 25 22 37 97 88 61 70 65 75 36 64 41 49 40 51 37 50 29
289 289 357 316 11 11 32 61 333 2 352 2 28 16 58 29 35 307 273 219 308 287 264 179 278 225 246 292 227 225 262 242 246 241 248 254 267 288 296 311 315 314 314 314 312 310 313 314 318 313 308 305 302 287 272 278 269 249 233 226 209 248 270 292 322 341 15 355 335 6 164 127 128 133 113 69 109 56 74 73 81 71 66 66 64 51
20 345 333 16 17 350 54 88 127 214 329 304 191 75 142 137 112 314 248 348 252 253 286 275 27 246 9 229 201 217 261 285 257 257 262 255 256 266 279 284 305 323 328 328 319 312 305 309 311 309 309 306 301 296 290 270 267 271 249 229 230 251 265 251 256 276 234 272 307 329 281 164 156 136 127 133 141 106 73 46 81 77 65 86 65 70
201 232 274 279 252 348 45 316 124 106 69 236 156 116 54 346 158 45 215 176 295 338 329 331 214 181 189 232 275 304 300 269 286 292 321 309 300 292 327 342 326 320 318 324 321 318 313 310 312 312 313 310 307 301 295 281 251 245 248 236 228 225 234 226 233 231 214 238 252 242 230 237 273 81 118 96 60 70 118 111 92 72 83 89 65 35
16 323 285 318 354 59 5 339 9 275 32 292 60 22 202 172 100 90 86 89 60 58 261 223 314 296 292 350 311 346 7 229 341 316 336 312 325 341 354 326 321 312 314 319 321 314 309 314 314 305 303 308 310 310 301 290 256 238 248 245 248 247 251 241 228 229 218 227 224 228 219 225 193 169 177 188 200 198 206 132 131 122 226 2 81 57
62 276 312 47 326 43 232 113 6 0 61 45 46 237 95 118 123 118 249 330 60 95 263 31 266 310 18 302 319 324 328 275 285 284 291 296 296 355 328 319 307 304 299 296 289 284 274 276 285 300 293 282 287 288 298 296 275 235 236 233 249 260 250 244 233 232 222 219 224 232 229 227 206 197 207 195 194 194 168 208 191 85 189 209 206 141
94 341 304 344 238 291 3 45 333 355 342 101 133 169 63 329 0 332 88 9 350 340 297 312 284 251 197 257 334 278 235 263 275 287 316 305 329 321 314 312 311 309 315 315 314 315 315 308 304 300 298 298 290 278 273 284 289 267 248 235 225 247 245 250 249 247 246 216 220 216 219 214 214 214 215 212 195 175 181 204 209 198 213 235 239 175
31 165 296 317 126 324 348 70 254 305 336 23 40 17 1 99 147 22 81 170 120 279 18 295 25 273 205 229 191 244 233 249 275 309 268 263 271 286 297 301 300 304 305 304 305 305 300 299 291 288 294 303 303 304 298 294 297 280 259 245 245 252 256 260 255 244 243 232 221 235 239 241 224 222 210 204 190 196 203 208 199 205 213 220 202 200
225 107 265 274 314 340 321 12 124 143 295 338 28 344 356 49 229 98 87 127 170 176 182 277 326 283 263 214 181 227 232 233 220 252 268 266 274 283 285 283 289 294 293 294 296 298 301 302 304 301 291 284 290 278 280 282 284 283 289 262 247 246 257 247 244 229 242 233 233 231 234 233 222 231 219 214 207 209 217 215 207 208 212 190 220 197
76 32 219 316 352 19 232 151 263 176 180 200 150 139 166 31 22 35 281 14 74 90 233 106 270 278 277 177 207 220 249 247 249 227 260 270 274 282 287 293 284 287 291 284 289 293 295 296 298 300 305 298 300 298 299 291 293 291 276 260 264 252 251 250 251 227 238 228 232 228 238 238 229 228 215 218 217 221 224 221 217 216 199 210 226 194
134 150 77 292 211 252 280 316 301 223 148 184 141 210 137 118 111 100 206 280 5 249 106 156 246 273 246 243 226 239 240 228 244 206 249 270 278 284 283 279 283 264 266 285 290 294 293 283 281 289 291 293 291 286 288 292 283 275 279 279 261 247 260 232 246 233 224 227 228 235 236 242 235 224 224 221 226 226 228 226 223 211 211 221 224 217
85 57 347 273 306 312 338 327 328 61 103 27 302 82 124 225 185 185 175 169 156 303 128 0 237 252 279 262 253 262 259 264 265 219 246 273 282 284 284 289 290 296 289 278 279 278 277 284 287 290 289 290 290 287 286 285 287 280 271 261 260 249 260 255 246 240 226 232 237 235 240 238 237 229 227 226 227 228 230 227 224 212 220 225 221 223
18 302 106 316 353 334 343 348 353 334 50 192 195 212 151 86 76 135 103 37 303 217 173 136 235 275 266 293 280 308 318 303 285 257 209 265 278 278 284 286 285 284 288 297 302 302 306 307 304 295 288 280 279 283 277 281 282 279 276 264 244 253 255 255 249 237 234 228 243 242 236 242 232 234 233 232 231 233 232 230 226 217 223 225 228 229
101 224 89 45 31 355 331 332 320 314 253 227 217 116 238 129 133 120 250 15 199 274 135 186 253 252 266 288 309 302 297 289 275 279 281 237 264 285 293 290 290 293 291 294 296 305 301 296 293 289 281 278 271 267 280 281 277 276 273 266 242 251 263 252 235 233 234 231 236 248 241 241 232 233 235 234 236 236 233 232 227 224 226 217 229 229
150 55 187 163 161 206 222 239 214 66 0 252 236 166 211 188 171 104 94 114 211 206 197 237 218 294 300 289 284 279 265 267 288 294 286 295 278 256 253 271 280 284 285 287 287 284 294 292 282 279 281 272 275 274 271 272 279 277 273 278 263 237 248 254 223 229 228 230 231 247 247 240 234 231 234 233 235 236 234 233 230 225 229 218 224 229
69 316 250 209 246 247 262 273 275 29 278 275 267 251 199 182 171 161 174 221 163 89 280 239 235 225 261 277 291 298 296 288 271 270 289 295 296 296 294 294 292 292 286 281 278 275 273 276 282 282 279 286 279 281 276 268 261 267 270 271 278 255 241 244 220 230 229 224 234 239 247 241 236 232 235 237 235 236 235 235 232 229 232 219 226 229
139 196 277 137 255 258 268 272 277 280 248 258 254 254 232 204 184 204 227 202 149 192 236 209 140 207 267 273 282 284 278 284 292 292 288 283 284 286 291 292 291 288 292 292 283 278 270 269 271 276 280 278 285 282 280 281 278 268 263 259 264 271 255 231 216 232 228 226 233 240 240 242 235 234 238 237 238 239 239 234 233 232 228 224 231 233
95 246 237 188 277 273 267 262 265 245 268 266 248 245 238 215 215 217 235 209 201 235 250 273 277 274 274 279 279 275 283 283 284 289 292 288 278 282 291 287 283 282 280 279 280 278 274 267 266 266 270 277 272 272 272 271 269 267 265 272 267 261 258 188 227 229 232 230 237 242 243 239 235 232 230 232 235 237 237 236 233 228 230 230 231 236
110 279 63 287 311 279 272 307 224 220 224 270 260 230 235 226 232 230 238 244 230 263 259 258 270 276 273 260 267 280 281 285 285 276 271 273 278 277 277 277 278 279 278 277 277 277 274 273 270 269 266 264 266 261 260 258 260 265 268 261 266 263 252 192 232 230 229 240 242 244 247 239 239 226 229 231 235 238 234 235 229 226 232 234 233 234
1 259 56 61 349 296 344 32 311 281 257 248 279 268 228 206 224 222 208 216 187 228 241 240 260 256 262 277 256 262 278 275 269 274 271 271 273 271 264 270 276 280 284 283 282 284 283 280 276 270 265 264 261 260 256 256 254 252 257 260 260 260 239 208 229 234 235 241 251 249 243 240 238 231 237 232 236 234 234 231 225 227 229 234 237 235
170 132 18 14 346 266 255 299 298 298 307 312 263 239 200 203 203 304 258 238 216 194 184 212 235 231 262 307 310 281 262 276 275 263 273 274 255 252 264 270 272 275 275 279 280 278 275 272 270 269 268 267 263 259 255 246 255 252 250 252 254 255 228 230 229 237 245 248 246 250 244 241 235 237 240 236 236 237 231 226 229 231 228 232 233 227
100 105 238 210 219 270 320 334 321 342 337 234 193 158 136 182 198 215 228 211 215 178 218 211 243 278 295 285 272 276 283 269 264 270 212 250 288 285 272 263 264 266 272 271 267 265 269 272 269 264 258 259 264 258 260 254 239 251 255 253 267 255 251 239 245 231 245 249 246 245 243 239 235 240 241 241 238 233 231 227 232 232 229 235 232 224
155 94 174 128 192 280 321 337 342 334 255 218 201 191 196 208 182 209 248 233 209 215 239 265 264 261 258 258 262 269 272 273 282 294 289 263 242 256 262 269 270 266 263 267 271 268 261 259 265 271 274 269 259 263 266 266 245 251 264 252 254 250 250 245 245 246 241 246 249 244 243 237 234 239 245 242 239 233 232 231 239 238 233 225 228 225
165 137 171 281 174 325 9 51 355 244 264 301 323 12 167 102 141 134 283 251 227 211 215 233 251 255 263 268 269 263 262 283 303 267 265 269 236 235 247 249 254 253 255 251 250 259 262 261 259 261 264 268 276 271 259 258 261 245 253 255 241 255 241 242 242 247 246 245 247 242 237 231 235 239 243 243 238 233 237 233 232 236 231 225 235 233
144 96 123 275 161 238 199 152 243 318 320 312 63 219 155 148 158 145 320 295 192 216 196 226 244 259 261 261 260 268 288 319 291 287 233 235 243 223 222 239 240 247 246 256 249 257 263 267 266 265 269 276 273 272 264 258 253 250 263 271 261 248 252 244 246 247 243 244 246 243 237 227 231 238 239 236 236 237 237 237 237 237 220 225 232 230
196 155 229 137 295 120 268 310 318 356 309 279 234 334 266 172 141 159 87 298 250 212 201 204 232 245 252 259 266 271 327 317 295 285 242 239 235 237 240 243 258 261 261 264 273 268 266 268 271 270 260 267 270 262 260 259 255 256 261 260 261 257 255 247 249 246 244 245 244 241 237 229 224 232 237 233 233 236 239 239 243 239 211 216 229 231
23 72 120 155 230 49 71 197 254 274 260 199 218 225 238 183 138 161 37 279 279 207 192 196 222 239 243 246 259 288 309 290 282 292 248 238 245 224 242 251 242 248 255 256 261 274 275 270 266 272 277 265 267 266 260 254 246 246 252 254 256 252 255 252 251 248 243 243 241 241 238 232 224 227 232 234 236 233 238 237 234 236 210 223 227 237
52 347 35 1 250 195 133 136 254 213 257 265 216 209 188 153 146 50 344 274 265 236 195 181 210 229 238 239 235 218 230 267 282 292 278 239 222 224 206 249 264 262 259 255 255 251 265 277 286 281 271 264 260 264 270 259 242 241 248 252 249 253 253 253 248 245 244 247 247 244 241 231 226 228 227 234 239 235 233 239 242 234 222 230 222 237
180 283 157 219 168 218 194 272 316 277 263 240 179 195 178 185 104 68 246 260 246 219 206 195 215 221 220 238 176 233 218 227 261 278 292 309 306 284 252 233 244 256 271 278 275 273 271 268 257 261 266 269 269 268 266 260 251 254 248 249 249 248 248 250 251 249 247 247 248 248 244 238 226 232 232 230 235 237 238 230 235 235 226 234 230 234
259 127 336 75 194 213 194 206 245 272 264 192 208 153 174 110 171 226 232 225 160 236 212 199 222 233 220 222 221 228 255 254 262 279 289 284 274 277 283 281 282 277 263 255 262 272 274 277 275 266 265 261 264 264 261 250 253 256 254 249 246 246 247 250 250 248 249 246 245 247 247 242 237 229 237 237 231 238 241 235 229 231 229 230 229 232
206 147 202 177 185 59 72 19 316 293 289 102 131 82 263 161 228 210 245 272 194 237 190 218 217 247 213 247 238 253 265 272 275 277 278 281 282 283 284 288 286 284 287 291 288 265 243 263 273 276 274 272 265 261 252 237 252 261 258 252 250 249 247 246 247 246 246 246 247 247 246 245 239 237 228 236 227 230 241 238 228 234 224 227 231 232
182 238 158 219 181 161 167 173 214 209 173 178 155 190 206 215 231 180 206 291 252 210 238 229 235 231 235 237 257 264 265 274 281 276 276 277 278 277 278 276 274 273 274 267 258 268 266 261 263 267 271 271 261 255 251 230 248 258 262 259 258 250 247 246 244 241 244 244 245 249 248 244 243 237 235 233 228 226 237 240 230 230 224 222 224 233
181 209 171 245 185 176 202 222 237 199 187 203 205 239 245 221 243 256 245 254 279 272 233 244 258 254 242 250 252 258 277 269 269 275 279 281 282 283 282 278 276 275 272 272 273 269 255 252 262 266 271 272 265 251 250 236 237 252 258 262 260 253 248 248 243 237 242 242 242 244 247 247 243 237 233 233 217 230 232 239 225 234 230 215 224 229
188 188 75 284 243 252 259 237 269 256 237 236 248 257 269 278 270 244 238 263 253 255 261 263 270 270 272 264 270 265 253 271 275 277 276 278 278 277 275 276 275 268 263 262 267 263 256 258 255 259 266 273 269 261 245 244 230 242 250 257 261 252 247 249 248 245 245 244 240 243 242 247 251 240 234 232 218 225 230 229 223 226 231 211 225 226
193 163 226 243 242 48 275 165 224 242 251 254 253 249 245 245 254 260 267 255 261 265 266 256 256 262 263 271 267 270 273 273 275 274 274 277 276 274 273 272 273 271 273 274 267 273 273 259 265 264 263 268 271 263 253 245 239 237 249 256 259 257 246 248 247 251 254 250 243 243 237 239 250 251 237 226 226 227 231 226 228 227 233 222 223 226
314 192 216 240 234 204 254 257 255 249 224 224 242 267 267 259 247 239 241 254 263 267 260 262 265 269 264 267 260 264 268 272 273 274 273 272 275 277 278 277 278 282 277 271 277 272 266 265 265 269 269 269 271 268 260 255 251 246 242 248 253 253 248 250 247 246 253 251 242 244 234 236 242 243 252 237 216 227 229 226 217 223 228 222 217 220
187 102 236 143 206 257 286 276 264 273 269 261 261 257 255 260 265 265 258 257 254 258 263 262 249 255 257 258 266 268 272 271 268 270 272 274 277 278 278 280 281 281 282 284 278 270 266 269 268 264 265 268 270 269 267 264 262 257 243 244 248 242 239 250 251 246 253 254 247 248 234 235 239 235 238 246 234 227 222 222 210 221 241 237 222 215
135 232 237 358 279 266 242 261 266 307 284 236 237 247 257 258 260 262 269 270 262 261 260 266 269 256 249 252 256 260 262 270 271 272 275 275 276 277 280 280 281 281 282 278 278 269 263 257 259 267 266 267 271 271 270 270 268 263 248 244 245 231 234 248 253 250 253 250 244 247 237 235 234 231 231 237 246 250 254 226 223 222 225 250 227 232
208 237 187 223 230 257 256 246 255 245 267 265 272 257 244 255 250 262 266 269 269 250 246 257 275 282 273 262 243 246 254 260 268 272 276 278 275 273 272 275 277 278 278 281 285 281 267 267 265 266 268 268 269 268 267 269 269 270 259 238 240 223 233 241 248 249 254 252 246 236 232 231 238 229 225 228 234 237 253 269 238 232 244 242 237 223